Погода в Ревсельге

Россия / Республика Карелия     61°10′02″N   34°25′17″E
темп.,
°C
ветер,
м/с
пор.,
м/с
влажн.,
%
обл.,
%
осадки,
мм/ч
давл.,
гПа
погр.,
м
28 января, чт
чт2800:00−6зюз229773 0.1 100226
03:00−4юз129781 0.1 100384
06:00−3юз1295100 0.1 100552
09:00−4ююв129699 0.1 100639
12:00−3ююв249796 0.1 1007207
15:00−3вюв129797 0.3 100796
18:00−6в239882 0.0 100793
21:00−7в239891 0.1 1007114
29 января, пт
пт2900:00−5всв3896100 0.1 1005285
03:00−5всв3896100 0.9 1003401
06:00−4всв4996100 0.9 1001471
09:00−3в41096100 2.3 999500
12:00−2в4997100 0.9 997538
15:00−2в4997100 1.9 995547
18:00−2в4997100 1.5 994502
21:00−3вюв4996100 2.3 993473
30 января, сб
сб3000:00−4вюв41094100 0.5 992588
03:00−4вюв399399 0.5 992402
06:00−5вюв4109591 0.1 991480
09:00−7вюв399696 0.1 990288
12:00−6вюв379586 0.0 990353
15:00−4вюв369492 0.1 989572
18:00−6юв2695100 0.2 989293
21:00−8юв239799 0.4 98989
31 января, вс
вс3100:00−11юв229790 0.1 98935
03:00−11вюв229791 0.2 99059
06:00−10вюв239788 0.3 98993
09:00−10юв249790 0.5 990139
12:00−8юв249589 0.1 990260
15:00−7вюв249695 0.3 990306
18:00−9вюв2398100 0.1 99083
21:00−10ююв1297100 0.2 99042
1 февраля, пн
пн100:00−11юв129795 0.1 99133
03:00−10ююв129797 0.5 99244
06:00−9ююз259787 0.1 993137
09:00−7ююз399591 0.6 994483
12:00−6юз4991100 0.1 996636
15:00−6ююз3892100 0.3 998647
18:00−7ююз2896100 0.1 999286
21:00−9ююз229798 0.1 100035